Location: Zagreb
(45.8000°N, 16.0000°E)
Time: 00:41:20
(UTC+01:00)

NUDT-PHONESAT - Pass Details

Date: 03 November 2020
Orbit: 481 x 500 km, 97.4° (Epoch: 30 November)

Event Time Altitude Azimuth Distance (km) Brightness Sun altitude
Rises 18:40:38 0° 204° (SSW) 2,587 ? -21.5°
Reaches altitude 10° 18:43:15 10° 224° (SW) 1,709 ? -22.0°
Maximum altitude 18:45:47 18° 268° (W) 1,309 ? -22.4°
Drops below altitude 10° 18:48:19 10° 311° (NW) 1,718 ? -22.9°
Sets 18:50:58 0° 332° (NNW) 2,606 ? -23.3°
